This is the latest recevied weather packets stored in our database for station/object K1BES. If no packets are shown the sender has not sent any weather packets the latest 10 day(s).
| Time | Temp. | Humidity | Pressure | Rain* | Wind** | Luminosity | Snow |
|---|---|---|---|---|---|---|---|
| 1788451161 | 32.22° C | 71% | 1016.9 hPa | 0 mm | - | 687 W/m² | - |
| 1788450856 | 32.22° C | 71% | 1016.8 hPa | 0 mm | - | 897 W/m² | - |
| 1788450552 | 32.22° C | 69% | 1017.1 hPa | 0 mm | - | 810 W/m² | - |
| 1788450248 | 31.67° C | 70% | 1017 hPa | 0 mm | - | 1046 W/m² | - |
| 1788449948 | 32.22° C | 69% | 1016.9 hPa | 0 mm | - | 537 W/m² | - |
| 1788449644 | 32.78° C | 67% | 1016.8 hPa | 0 mm | - | 566 W/m² | - |
| 1788449340 | 32.22° C | 68% | 1016.9 hPa | 0 mm | - | 1004 W/m² | - |
| 1788449036 | 31.67° C | 71% | 1016.9 hPa | 0 mm | - | 598 W/m² | - |
| 1788448731 | 31.11° C | 72% | 1016.9 hPa | 0 mm | - | 371 W/m² | - |
| 1788448426 | 30.56° C | 77% | 1016.8 hPa | 0 mm | - | 656 W/m² | - |
| 1788448127 | 30° C | 81% | 1016.8 hPa | 0 mm | - | 181 W/m² | - |
| 1788447827 | 30.56° C | 80% | 1016.7 hPa | 0 mm | - | 105 W/m² | - |
| 1788447521 | 31.11° C | 79% | 1016.6 hPa | 0 mm | - | 116 W/m² | - |
| 1788447217 | 31.67° C | 76% | 1016.7 hPa | 0 mm | - | 87 W/m² | - |
| 1788446916 | 32.22° C | 73% | 1016.7 hPa | 0 mm | - | 171 W/m² | - |
| 1788446611 | 32.78° C | 70% | 1016.4 hPa | 0 mm | - | 279 W/m² | - |
| 1788446307 | 32.78° C | 73% | 1016.5 hPa | 0 mm | - | 733 W/m² | - |
| 1788446003 | 32.22° C | 73% | 1016.5 hPa | 0 mm | - | 657 W/m² | - |
| 1788445699 | 31.67° C | 74% | 1016.6 hPa | 0 mm | - | 637 W/m² | - |
| 1788445395 | 32.22° C | 72% | 1016.4 hPa | 0 mm | - | 157 W/m² | - |
| 1788445090 | 31.67° C | 74% | 1016.4 hPa | 0 mm | - | 547 W/m² | - |
| 1788444786 | 31.67° C | 75% | 1016.6 hPa | 0 mm | - | 426 W/m² | - |
| 1788444486 | 32.22° C | 74% | 1016.6 hPa | 0 mm | - | 161 W/m² | - |
| 1788444181 | 31.67° C | 75% | 1016.4 hPa | 0 mm | - | 606 W/m² | - |
| 1788443877 | 31.11° C | 77% | 1016.5 hPa | 0 mm | - | 546 W/m² | - |
* Rain latest hour (hover to see other rain measurements)
** Current wind speed in m/s (hover to see current wind gust speed)